When you browse on this site, cookies collect data to enhance your experience and personalize the content and advertising you see.
Visit our Privacy Policy to learn more. By continuing to use the site, you agree to this use of cookies and data.
  • în România
  • Lista ţărilor
  • Pe 7 zile
  • Temperatura apei
  • Meteo pe hartă
  • Widget-uri
  • user-avatar
    Intrare

    Meteo pe oră la Dolgovka

    Astăzi, 18 Septembrie, Miercuri

    Timp Temperatura Precipitaţii Vânt Presiune Umiditate
    00:00 +5°C° 0 mm 4 m/s 734 mmHg 89%
    01:00 +5°C° 0 mm 4 m/s 734 mmHg 90%
    02:00 +5°C° 0 mm 4 m/s 734 mmHg 92%
    03:00 +4°C° 0 mm 3 m/s 734 mmHg 93%
    04:00 +4°C° 0 mm 3 m/s 734 mmHg 93%
    05:00 +4°C° 0 mm 3 m/s 733 mmHg 93%
    06:00 +4°C° 0 mm 3 m/s 733 mmHg 93%
    07:00 +5°C° 0 mm 3 m/s 733 mmHg 87%
    08:00 +7°C° 0 mm 3 m/s 733 mmHg 82%
    09:00 +9°C° 0 mm 3 m/s 733 mmHg 76%
    10:00 +9°C° 0.5 mm 3 m/s 732 mmHg 79%
    11:00 +9°C° 0.5 mm 2 m/s 732 mmHg 83%
    12:00 +8°C° 0.5 mm 2 m/s 732 mmHg 86%
    13:00 +8°C° 0.9 mm 2 m/s 731 mmHg 87%
    14:00 +8°C° 0.9 mm 2 m/s 731 mmHg 89%
    15:00 +9°C° 0.9 mm 1 m/s 731 mmHg 91%
    16:00 +8°C° 0.1 mm 2 m/s 730 mmHg 91%
    17:00 +8°C° 0.1 mm 2 m/s 730 mmHg 91%
    18:00 +8°C° 0.1 mm 2 m/s 730 mmHg 92%
    19:00 +8°C° 0.1 mm 3 m/s 730 mmHg 92%
    20:00 +7°C° 0.1 mm 3 m/s 730 mmHg 92%
    21:00 +6°C° 0.1 mm 4 m/s 731 mmHg 92%
    22:00 +6°C° 0 mm 4 m/s 731 mmHg 93%
    23:00 +5°C° 0 mm 4 m/s 732 mmHg 93%

    Mâine, 19 Septembrie, Joi

    Timp Temperatura Precipitaţii Vânt Presiune Umiditate
    00:00 +5°C° 0 mm 4 m/s 732 mmHg 93%
    01:00 +4°C° 0 mm 4 m/s 733 mmHg 94%
    02:00 +4°C° 0 mm 4 m/s 734 mmHg 94%
    03:00 +4°C° 0 mm 4 m/s 734 mmHg 95%
    04:00 +4°C° 0 mm 4 m/s 735 mmHg 96%
    05:00 +4°C° 0 mm 4 m/s 736 mmHg 96%
    06:00 +3°C° 0 mm 4 m/s 736 mmHg 97%
    07:00 +3°C° 0 mm 5 m/s 737 mmHg 96%
    08:00 +5°C° 0 mm 5 m/s 738 mmHg 94%
    09:00 +5°C° 0 mm 5 m/s 738 mmHg 93%
    10:00 +6°C° 0 mm 4 m/s 739 mmHg 91%
    11:00 +6°C° 0 mm 4 m/s 739 mmHg 89%
    12:00 +7°C° 0 mm 4 m/s 740 mmHg 86%
    13:00 +8°C° 0.2 mm 4 m/s 740 mmHg 83%
    14:00 +8°C° 0.2 mm 4 m/s 741 mmHg 79%
    15:00 +10°C° 0.2 mm 4 m/s 741 mmHg 76%
    16:00 +8°C° 0.2 mm 4 m/s 741 mmHg 78%
    17:00 +8°C° 0.2 mm 4 m/s 742 mmHg 81%
    18:00 +8°C° 0.2 mm 3 m/s 742 mmHg 83%
    19:00 +7°C° 0.1 mm 3 m/s 742 mmHg 86%
    20:00 +5°C° 0.1 mm 3 m/s 743 mmHg 89%
    21:00 +5°C° 0.1 mm 3 m/s 743 mmHg 92%
    22:00 +5°C° 0.1 mm 2 m/s 743 mmHg 92%
    23:00 +5°C° 0.1 mm 2 m/s 743 mmHg 92%

    Poimâine, 20 Septembrie, Vineri

    Timp Temperatura Precipitaţii Vânt Presiune Umiditate
    00:00 +5°C° 0.1 mm 2 m/s 743 mmHg 91%
    01:00 +5°C° 0.1 mm 2 m/s 743 mmHg 92%
    02:00 +4°C° 0.1 mm 2 m/s 743 mmHg 93%
    03:00 +4°C° 0.1 mm 2 m/s 744 mmHg 93%
    04:00 +4°C° 0 mm 1 m/s 743 mmHg 93%
    05:00 +4°C° 0 mm 1 m/s 743 mmHg 92%
    06:00 +4°C° 0 mm 1 m/s 743 mmHg 92%
    07:00 +5°C° 0 mm 1 m/s 743 mmHg 87%
    08:00 +6°C° 0 mm 1 m/s 744 mmHg 82%
    09:00 +6°C° 0 mm 1 m/s 744 mmHg 77%
    10:00 +7°C° 0 mm 1 m/s 744 mmHg 70%
    11:00 +8°C° 0 mm 1 m/s 744 mmHg 64%
    12:00 +9°C° 0 mm 1 m/s 744 mmHg 57%
    13:00 +9°C° 0 mm 1 m/s 744 mmHg 55%
    14:00 +10°C° 0 mm 1 m/s 744 mmHg 54%
    15:00 +10°C° 0 mm 1 m/s 744 mmHg 52%
    16:00 +9°C° 0 mm 1 m/s 744 mmHg 56%
    17:00 +8°C° 0 mm 1 m/s 744 mmHg 60%
    18:00 +8°C° 0 mm 1 m/s 744 mmHg 64%
    19:00 +7°C° 0 mm 1 m/s 744 mmHg 65%
    20:00 +7°C° 0 mm 1 m/s 744 mmHg 66%
    21:00 +6°C° 0 mm 1 m/s 745 mmHg 67%
    22:00 +6°C° 0 mm 1 m/s 745 mmHg 69%
    23:00 +6°C° 0 mm 1 m/s 745 mmHg 70%

    21 Septembrie, Sâmbătă

    Timp Temperatura Precipitaţii Vânt Presiune Umiditate
    00:00 +5°C° 0 mm 1 m/s 745 mmHg 72%
    01:00 +5°C° 0 mm 1 m/s 745 mmHg 75%
    02:00 +4°C° 0 mm 2 m/s 745 mmHg 78%
    03:00 +3°C° 0 mm 2 m/s 746 mmHg 80%
    04:00 +3°C° 0 mm 2 m/s 746 mmHg 81%
    05:00 +3°C° 0 mm 2 m/s 746 mmHg 82%
    06:00 +2°C° 0 mm 2 m/s 746 mmHg 83%
    07:00 +3°C° 0 mm 2 m/s 746 mmHg 81%
    08:00 +3°C° 0 mm 3 m/s 747 mmHg 78%
    09:00 +4°C° 0 mm 3 m/s 747 mmHg 75%
    10:00 +5°C° 0 mm 3 m/s 747 mmHg 68%
    11:00 +8°C° 0 mm 3 m/s 747 mmHg 62%
    12:00 +9°C° 0 mm 3 m/s 747 mmHg 55%
    13:00 +9°C° 0 mm 3 m/s 747 mmHg 54%
    14:00 +9°C° 0 mm 3 m/s 747 mmHg 53%
    15:00 +9°C° 0 mm 2 m/s 747 mmHg 52%
    16:00 +8°C° 0 mm 2 m/s 747 mmHg 56%
    17:00 +7°C° 0 mm 2 m/s 746 mmHg 61%
    18:00 +7°C° 0 mm 1 m/s 746 mmHg 66%
    19:00 +6°C° 0 mm 2 m/s 746 mmHg 70%
    20:00 +5°C° 0 mm 2 m/s 746 mmHg 75%
    21:00 +3°C° 0 mm 3 m/s 746 mmHg 79%
    22:00 +3°C° 0 mm 3 m/s 746 mmHg 78%
    23:00 +3°C° 0 mm 3 m/s 745 mmHg 78%

    22 Septembrie, Duminică

    Timp Temperatura Precipitaţii Vânt Presiune Umiditate
    00:00 +3°C° 0 mm 4 m/s 744 mmHg 77%
    01:00 +2°C° 0.1 mm 5 m/s 743 mmHg 80%
    02:00 +2°C° 0.1 mm 6 m/s 742 mmHg 83%
    03:00 +2°C° 0.1 mm 7 m/s 741 mmHg 86%
    04:00 +3°C° 0.5 mm 7 m/s 740 mmHg 88%
    05:00 +2°C° 0.5 mm 8 m/s 739 mmHg 90%
    06:00 +2°C° 0.5 mm 8 m/s 738 mmHg 92%
    07:00 +5°C° 0.8 mm 8 m/s 737 mmHg 91%
    08:00 +6°C° 0.8 mm 8 m/s 736 mmHg 91%
    09:00 +9°C° 0.8 mm 8 m/s 735 mmHg 90%
    10:00 +8°C° 0.2 mm 9 m/s 735 mmHg 82%
    11:00 +9°C° 0.2 mm 10 m/s 735 mmHg 73%
    12:00 +9°C° 0.2 mm 11 m/s 736 mmHg 65%
    13:00 +9°C° 0 mm 11 m/s 736 mmHg 58%
    14:00 +8°C° 0 mm 11 m/s 736 mmHg 51%
    15:00 +8°C° 0 mm 11 m/s 737 mmHg 44%
    16:00 +7°C° 0 mm 10 m/s 737 mmHg 48%
    17:00 +6°C° 0 mm 9 m/s 738 mmHg 51%
    18:00 +5°C° 0 mm 7 m/s 738 mmHg 54%
    19:00 +4°C° 0 mm 8 m/s 739 mmHg 56%
    20:00 +4°C° 0 mm 8 m/s 739 mmHg 58%
    21:00 +2°C° 0 mm 8 m/s 739 mmHg 59%
    22:00 +2°C° 0 mm 8 m/s 740 mmHg 62%
    23:00 +1°C° 0 mm 8 m/s 740 mmHg 65%

    23 Septembrie, Luni

    Timp Temperatura Precipitaţii Vânt Presiune Umiditate
    00:00 +2°C° 0 mm 7 m/s 741 mmHg 68%
    01:00 0°C° 0 mm 7 m/s 741 mmHg 71%
    02:00 0°C° 0 mm 7 m/s 742 mmHg 74%
    03:00 0°C° 0 mm 7 m/s 742 mmHg 76%
    04:00 -1°C° 0 mm 6 m/s 743 mmHg 78%
    05:00 -1°C° 0 mm 6 m/s 743 mmHg 80%
    06:00 -1°C° 0 mm 6 m/s 744 mmHg 81%
    07:00 +1°C° 0 mm 5 m/s 744 mmHg 79%
    08:00 +1°C° 0 mm 5 m/s 745 mmHg 77%
    09:00 +2°C° 0 mm 5 m/s 745 mmHg 74%
    10:00 +3°C° 0 mm 5 m/s 745 mmHg 70%
    11:00 +5°C° 0 mm 4 m/s 745 mmHg 66%
    12:00 +6°C° 0 mm 4 m/s 745 mmHg 62%
    13:00 +8°C° 0 mm 3 m/s 745 mmHg 59%
    14:00 +8°C° 0 mm 3 m/s 745 mmHg 57%
    15:00 +8°C° 0 mm 3 m/s 745 mmHg 55%
    16:00 +8°C° 0 mm 2 m/s 745 mmHg 58%
    17:00 +7°C° 0 mm 2 m/s 745 mmHg 61%
    18:00 +8°C° 0 mm 1 m/s 745 mmHg 64%
    19:00 +7°C° 0.3 mm 1 m/s 745 mmHg 72%
    20:00 +5°C° 0.3 mm 2 m/s 745 mmHg 80%
    21:00 +4°C° 0.3 mm 2 m/s 745 mmHg 87%
    22:00 +5°C° 0.2 mm 1 m/s 744 mmHg 89%
    23:00 +5°C° 0.2 mm 1 m/s 744 mmHg 91%
    Arată mai mult